This demonstration page uses our WeatherBlox Daily Observations layout. Learn more.

Left ArrowRight Arrow

44.8408, -93.29828

Hourly Observations for November 30, 2019

Temp ( °F °C ) Dew Point ( °F °C ) Humidity (%) Winds ( mph kmh ) Pressure ( in mb ) Visibility ( mi km ) Precip ( " mm )
12:14 am 00:14 Cloudy with Snow 31 -0.6 29 -1.7 92 92 E 13 20 30.09 1019 1 1 0.01 0.25
12:51 am 00:51 Cloudy with Light Snow 30 -1 28 -2 93 93 E 14 22 30.06 1018 1 2 0.04 1.02
12:53 am 00:53 Cloudy with Light Snow 31 -0.6 29 -1.7 92 92 E 14 22 30.04 1017 1 2 0.04 1.02
1:11 am 01:11 Cloudy with Light Snow 31 -0.6 29 -1.7 92 92 E 15 24 30.05 1018 1 1 0.01 0.25
1:40 am 01:40 Cloudy with Light Snow 31 -0.6 29 -1.7 92 92 E 14 22 30.05 1018 1 2 0.03 0.76
1:53 am 01:53 Cloudy with Light Snow 31 -0.6 28 -2.2 89 89 E 13 20 30.02 1017 1 2 0.04 1.02
2:24 am 02:24 Cloudy with Light Snow 31 -0.6 28 -2.2 89 89 E 15 24 30.03 1017 2 2 0.01 0.25
2:53 am 02:53 Cloudy with Light Snow 31 -0.6 28 -2.2 89 89 E 14 22 29.99 1016 1 2 0.02 0.51
3:15 am 03:15 Cloudy with Light Snow 31 -0.6 28 -2.2 89 89 E 15 24 30.00 1016 2 2 0.01 0.25
3:35 am 03:35 Cloudy with Light Snow 31 -0.6 28 -2.2 89 89 E 15 24 29.98 1015 2 3 0.02 0.51
3:53 am 03:53 Cloudy with Light Snow 31 -0.6 28 -2.2 89 89 E 15 24 29.94 1014 2 3 0.02 0.51
4:10 am 04:10 Cloudy with Light Snow 31 -0.6 28 -2.2 89 89 E 16 26 29.95 1014 5 8 0.01 0.25
4:53 am 04:53 Cloudy with Mist and Fog 32 0 29 -1.7 88 88 E 18 30 29.90 1012 4 6 0.01 0.25
5:53 am 05:53 Cloudy with Mist and Fog 32 0 29 -1.7 88 88 E 17 28 29.89 1012 4 6 0.00 0.00
6:04 am 06:04 Cloudy with Light Wintry Mix 32 0 29 -1.7 88 88 E 20 31 29.90 1012 3 5 0.00 0.00
6:27 am 06:27 Cloudy with Light Wintry Mix 32 0 29 -1.7 88 88 E 18 30 29.87 1011 3 5 0.00 0.00
6:51 am 06:51 Cloudy 32 0 28 -2 87 87 E 21 33 29.87 1011 5 8 0.00 0.00
6:53 am 06:53 Cloudy 32 0 29 -1.7 88 88 E 21 33 29.84 1011 5 8 0.00 0.00
7:02 am 07:02 Cloudy 33 0.6 29 -1.7 85 85 E 18 30 29.85 1011 4 6 0.00 0.00
7:28 am 07:28 Cloudy 33 0.6 29 -1.7 85 85 E 24 39 29.82 1010 10 16 0.01 0.25
7:53 am 07:53 Cloudy 33 0.6 29 -1.7 85 85 E 18 30 29.81 1010 10 16 0.01 0.25
8:18 am 08:18 Cloudy 33 0.6 29 -1.7 85 85 E 26 43 29.77 1008 4 6 0.00 0.00
8:42 am 08:42 Cloudy with Drizzle 33 0.6 29 -1.7 85 85 E 22 35 29.77 1008 4 6 0.00 0.00
8:53 am 08:53 Cloudy with Mist and Fog 33 0.6 29 -1.7 85 85 E 22 35 29.75 1008 5 8 0.00 0.00
9:31 am 09:31 Cloudy 33 0.6 29 -1.7 85 85 E 22 35 29.76 1008 4 6 0.00 0.00
9:34 am 09:34 Cloudy 33 0.6 30 -1.1 89 89 E 20 31 29.76 1008 3 4 0.00 0.00
9:43 am 09:43 Cloudy 33 0.6 30 -1.1 89 89 E 21 33 29.75 1008 2 2 0.01 0.25
9:53 am 09:53 Cloudy 33 0.6 30 -1.1 89 89 E 17 28 29.74 1007 2 3 0.02 0.51
12:27 pm 12:27 Cloudy with Mist and Fog 34 1.1 31 -0.6 89 89 E 17 28 29.65 1004 3 4 0.03 0.76
12:32 pm 12:32 Cloudy with Light Rain/Snow 34 1.1 30 -1.1 85 85 E 15 24 29.66 1004 3 5 0.03 0.76
12:42 pm 12:42 Cloudy with Mist and Fog 34 1.1 30 -1.1 85 85 E 18 30 29.65 1004 3 4 0.03 0.76
12:51 pm 12:51 Cloudy with Mist and Fog 34 1 30 -1 87 87 E 16 26 29.64 1004 2 3 0.04 1.02
12:53 pm 12:53 Cloudy with Mist and Fog 34 1.1 30 -1.1 85 85 E 16 26 29.62 1003 2 3 0.04 1.02
1:12 pm 13:12 Cloudy with Mist and Fog 34 1.1 31 -0.6 89 89 E 17 28 29.63 1003 2 3 0.00 0.00
1:30 pm 13:30 Cloudy with Mist and Fog 34 1.1 31 -0.6 89 89 E 16 26 29.62 1003 3 4 0.01 0.25
1:42 pm 13:42 Cloudy with Mist and Fog 34 1.1 30 -1.1 85 85 E 18 30 29.61 1003 2 2 0.01 0.25
1:53 pm 13:53 Cloudy with Mist and Fog 34 1.1 30 -1.1 85 85 E 17 28 29.58 1002 2 2 0.02 0.51
2:19 pm 14:19 Cloudy with Mist and Fog 34 1.1 31 -0.6 89 89 E 16 26 29.59 1002 2 3 0.01 0.25
2:23 pm 14:23 Cloudy with Drizzle 34 1.1 31 -0.6 89 89 E 14 22 29.58 1002 2 3 0.01 0.25
2:36 pm 14:36 Cloudy with Nearby Thunderstorms 34 1.1 31 -0.6 89 89 E 15 24 29.58 1002 3 5 0.01 0.25
2:40 pm 14:40 Cloudy with Nearby Thunderstorms 34 1.1 31 -0.6 89 89 E 16 26 29.58 1002 3 5 0.01 0.25
2:45 pm 14:45 Cloudy with Mist and Fog 34 1.1 31 -0.6 89 89 E 15 24 29.58 1002 3 4 0.01 0.25
2:53 pm 14:53 Cloudy with Mist and Fog 34 1.1 31 -0.6 89 89 E 18 30 29.56 1001 3 5 0.01 0.25
3:23 pm 15:23 Cloudy with Mist and Fog 34 1.1 30 -1.1 85 85 E 18 30 29.56 1001 3 4 0.00 0.00
3:34 pm 15:34 Cloudy with Mist and Fog 34 1.1 31 -0.6 89 89 E 15 24 29.57 1001 3 5 0.01 0.25
3:53 pm 15:53 Cloudy with Mist and Fog 34 1.1 31 -0.6 89 89 E 16 26 29.55 1001 2 3 0.01 0.25
4:03 pm 16:03 Cloudy with Mist and Fog 34 1.1 31 -0.6 89 89 E 15 24 29.57 1001 2 3 0.00 0.00
4:13 pm 16:13 Cloudy with Mist and Fog 34 1.1 31 -0.6 89 89 E 16 26 29.57 1001 2 3 0.01 0.25
4:23 pm 16:23 Cloudy with Mist and Fog 33 0.6 31 -0.6 92 92 E 15 24 29.57 1001 1 2 0.01 0.25
4:36 pm 16:36 Cloudy with Light Snow 33 0.6 31 -0.6 92 92 E 10 17 29.57 1001 2 2 0.01 0.25
4:42 pm 16:42 Cloudy with Light Snow 33 0.6 30 -1.1 89 89 E 14 22 29.57 1001 2 3 0.01 0.25
4:53 pm 16:53 Cloudy with Light Snow 34 1.1 30 -1.1 85 85 E 13 20 29.55 1001 3 5 0.01 0.25
5:11 pm 17:11 Cloudy with Light Snow 34 1.1 30 -1.1 85 85 E 15 24 29.56 1001 2 3 0.00 0.00
5:18 pm 17:18 Cloudy with Light Snow 33 0.6 30 -1.1 89 89 E 17 28 29.56 1001 1 2 0.01 0.25
5:24 pm 17:24 Cloudy with Light Snow 33 0.6 30 -1.1 89 89 E 18 30 29.55 1001 1 1 0.01 0.25
5:29 pm 17:29 Cloudy with Light Snow 33 0.6 30 -1.1 89 89 ENE 15 24 29.55 1001 1 2 0.01 0.25
5:49 pm 17:49 Cloudy with Light Snow 34 1 30 -1 87 87 E 17 28 29.55 1001 2 2 0.02 0.51
5:53 pm 17:53 Cloudy with Light Snow 33 0.6 30 -1.1 89 89 ENE 13 20 29.53 1000 2 3 0.03 0.76
6:12 pm 18:12 Cloudy with Light Snow 33 0.6 30 -1.1 89 89 E 15 24 29.54 1000 2 2 0.00 0.00
6:35 pm 18:35 Cloudy with Light Snow 33 0.6 30 -1.1 89 89 E 14 22 29.54 1000 2 3 0.00 0.00
6:39 pm 18:39 Cloudy with Light Snow 33 0.6 30 -1.1 89 89 ENE 13 20 29.54 1000 3 5 0.00 0.00
6:53 pm 18:53 Cloudy with Light Snow 33 0.6 30 -1.1 89 89 E 14 22 29.52 1000 3 5 0.00 0.00
7:01 pm 19:01 Cloudy with Light Snow 34 1.1 30 -1.1 85 85 E 12 19 29.54 1000 3 5 0.00 0.00
7:30 pm 19:30 Cloudy with Light Snow 33 0.6 30 -1.1 89 89 E 13 20 29.53 1000 3 4 0.00 0.00
7:46 pm 19:46 Cloudy with Light Snow 33 0.6 30 -1.1 89 89 E 14 22 29.52 1000 1 2 0.01 0.25
7:53 pm 19:53 Cloudy with Light Snow 33 0.6 30 -1.1 89 89 ENE 14 22 29.51 999 1 2 0.01 0.25
8:22 pm 20:22 Cloudy with Light Snow 32 0 30 -1.1 92 92 NE 14 22 29.52 1000 2 2 0.00 0.00
8:53 pm 20:53 Cloudy with Light Snow 33 0.6 30 -1.1 89 89 ENE 14 22 29.50 999 2 2 0.01 0.25
9:26 pm 21:26 Cloudy with Light Snow 32 0 29 -1.7 88 88 NE 14 22 29.51 999 2 2 0.00 0.00
9:36 pm 21:36 Cloudy with Light Snow 32 0 29 -1.7 88 88 NE 14 22 29.51 999 2 2 0.00 0.00
9:40 pm 21:40 Cloudy with Light Snow 32 0 29 -1.7 88 88 NE 14 22 29.51 999 2 3 0.00 0.00
9:53 pm 21:53 Cloudy with Mist and Fog 33 0.6 29 -1.7 85 85 NE 12 19 29.49 999 3 4 0.00 0.00
10:53 pm 22:53 Cloudy with Light Snow 32 0 29 -1.7 88 88 NE 14 22 29.49 999 2 3 0.00 0.00
10:59 pm 22:59 Cloudy with Light Snow 32 0 29 -1.7 88 88 NE 15 24 29.51 999 2 3 0.00 0.00
11:43 pm 23:43 Cloudy with Light Snow 32 0 29 -1.7 88 88 NE 12 19 29.51 999 3 4 0.01 0.25
11:53 pm 23:53 Cloudy with Light Snow 32 0 29 -1.7 88 88 NE 15 24 29.49 999 3 4 0.01 0.25

Powered by AerisWeather